EHI
0 0 0 0 0 0 0 1 3 7 10 10 10 13 15 15 14 19 27 35 43 45 46 50 50 45 42 41 40 38 37 39 37 35 36 36 36 36 35 34 33 33 32 29
0 0 0 0 0 0 1 3 5 9 11 10 9 12 15 14 14 18 27 36 41 42 44 47 48 46 42 42 42 40 38 39 39 38 37 35 34 33 32 32 31 30 29 27
0 0 0 1 1 2 4 6 8 10 11 11 12 15 17 17 18 19 26 35 39 40 41 43 44 43 43 42 42 40 37 37 38 38 36 34 31 30 29 29 30 29 27 24
0 1 2 2 3 4 5 7 9 10 9 10 13 17 20 22 22 22 26 36 41 40 39 40 41 40 40 42 40 36 34 35 35 34 33 32 30 28 28 29 31 30 26 23
1 2 3 3 3 3 4 6 8 9 8 8 10 13 18 21 22 22 27 36 42 40 38 40 42 42 41 41 38 33 31 32 31 30 30 30 30 29 30 32 32 29 25 22
0 1 1 1 1 2 3 5 9 11 10 10 9 10 15 20 21 23 28 36 40 38 37 40 45 45 44 41 36 31 29 30 30 29 28 29 30 29 30 31 29 24 21 19
1 0 0 0 1 2 3 6 10 12 13 14 15 17 21 25 26 26 31 37 37 36 38 42 45 45 44 39 35 32 30 30 31 30 26 26 29 30 29 29 26 22 18 16
2 1 2 3 5 5 5 8 10 11 14 17 20 25 29 31 30 30 34 38 37 37 39 41 42 42 41 39 37 37 34 31 30 28 24 24 29 30 29 28 26 22 17 15
4 4 5 7 8 8 7 8 11 13 15 19 23 27 31 32 31 32 35 37 38 39 38 38 38 38 38 38 40 40 36 32 29 26 24 25 27 25 24 24 23 20 16 15
7 7 6 7 7 7 6 6 11 15 18 21 25 30 32 33 33 34 35 35 37 38 35 34 35 35 34 36 38 36 33 30 27 25 24 23 20 14 13 15 16 16 14 13
9 9 7 5 4 4 3 5 9 15 18 23 28 32 34 34 35 34 33 33 33 33 30 29 31 31 31 33 34 31 28 25 22 20 18 17 12 7 5 6 8 9 9 9
11 11 9 6 4 3 2 4 7 12 17 20 25 29 32 34 34 32 32 31 30 27 25 23 24 26 28 30 31 29 25 21 18 16 15 13 10 6 3 2 2 3 3 3
12 13 11 7 4 2 2 4 6 11 15 17 20 23 27 30 31 31 31 29 25 22 21 20 20 21 23 26 27 25 22 18 16 14 13 12 11 8 4 1 1 1 0 0
11 11 9 6 5 3 4 6 8 13 16 18 20 21 24 26 28 30 30 26 20 18 20 19 19 17 17 20 20 19 17 16 14 13 12 11 10 9 6 4 3 2 1 0
6 6 6 6 5 5 7 10 12 15 19 21 22 22 23 24 27 29 30 25 19 19 20 20 19 16 14 15 16 15 15 15 14 13 11 10 9 8 7 5 4 2 1 0
2 3 5 6 6 7 10 13 14 17 18 19 20 21 23 24 26 28 28 25 22 21 21 22 21 17 12 11 12 13 13 13 12 12 11 10 9 8 7 5 4 2 1 0
1 2 5 7 7 8 11 13 14 15 15 15 16 19 20 22 23 24 24 23 23 23 23 23 22 17 11 10 9 9 10 10 9 10 9 9 8 8 7 5 3 2 1 0
2 2 3 5 7 8 10 13 14 14 13 12 13 15 17 17 17 18 17 18 21 23 22 20 17 13 9 8 8 8 9 9 8 7 7 7 6 5 5 4 2 1 0 0
2 1 2 3 5 8 11 14 14 14 13 12 11 13 14 13 12 12 11 12 14 16 17 14 9 6 6 6 7 9 9 8 7 7 6 6 5 4 3 3 1 0 0 0
1 0 1 3 5 8 11 13 13 13 13 12 12 13 12 11 9 8 8 7 8 9 10 9 5 4 4 4 5 6 7 7 7 7 7 5 4 4 4 2 1 0 0 0
0 0 1 4 7 8 9 11 12 11 12 12 12 13 12 10 9 8 7 6 6 6 5 4 4 4 4 3 2 2 4 6 7 7 6 4 3 4 4 2 1 0 0 0
0 1 4 6 8 9 9 11 11 11 12 14 14 12 10 8 7 8 8 7 6 5 4 3 2 2 2 2 1 1 3 5 5 5 3 2 1 2 2 1 0 0 0 0
1 3 7 10 10 10 9 10 11 11 12 14 13 9 6 5 4 5 6 6 5 3 3 2 1 0 0 1 2 2 2 3 3 2 1 0 1 1 1 0 0 0 0 0
4 5 8 10 10 9 7 7 9 9 9 9 8 6 4 3 2 2 3 4 3 2 2 1 0 0 0 1 3 3 2 2 1 1 0 0 1 0 0 0 0 0 0 0
6 6 7 7 7 6 5 4 5 5 5 3 3 3 3 3 2 2 4 3 2 1 1 0 0 0 0 1 2 2 1 2 2 1 1 1 1 0 0 0 0 0 0 0
6 5 5 3 2 2 2 1 1 2 3 3 3 4 3 2 1 2 4 4 2 2 2 1 1 0 0 1 1 1 0 1 2 2 2 1 1 0 0 0 0 0 0 0
4 4 3 1 1 1 0 0 0 1 3 4 4 5 4 2 1 2 3 4 3 3 3 2 2 1 1 2 2 1 0 0 1 1 1 1 1 1 0 0 0 0 0 0
Wind_Speed
13 12 11 11 12 13 13 11 10 6 5 4 2 4 6 5 6 6 5 5 5 5 4 5 4 4 4 4 4 5 6 7 6 5 5 4 4 4 3 3 3 2 2 2
14 14 12 14 14 13 12 10 10 6 3 3 2 3 4 5 6 5 5 6 6 6 6 6 5 5 4 4 4 4 4 5 5 5 5 5 4 4 3 3 2 2 3 3
13 12 13 15 12 10 9 8 7 5 2 2 2 3 2 2 3 4 4 4 6 6 6 6 5 5 5 4 4 4 4 4 4 4 4 4 4 4 3 3 3 3 2 2
11 12 15 9 8 9 8 5 4 3 2 1 2 4 3 2 2 2 3 4 5 5 6 7 6 6 5 5 5 5 4 4 4 3 3 3 3 3 3 2 2 2 2 2
9 11 11 8 7 6 6 4 4 3 1 0 2 3 3 3 3 2 1 2 4 4 6 6 6 6 5 5 5 4 4 4 4 4 3 4 4 3 3 2 2 2 2 2
10 11 10 7 5 5 5 4 1 1 1 1 1 1 1 2 3 2 2 2 2 2 4 5 5 6 6 5 4 4 4 3 3 4 4 3 3 3 3 3 3 3 2 2
11 10 8 4 3 3 5 1 2 3 2 2 1 2 3 3 3 2 3 3 2 2 2 3 4 5 5 5 4 3 3 3 3 3 3 4 3 3 3 3 3 3 3 3
10 10 7 2 2 1 2 3 3 4 3 3 3 4 4 3 3 2 3 3 3 3 3 3 3 4 4 4 3 3 3 3 3 3 4 3 3 3 3 4 4 4 4 3
4 3 3 6 5 4 4 3 2 2 3 3 4 4 4 3 3 3 3 3 3 2 3 3 2 3 3 3 3 3 2 2 2 2 2 2 3 3 3 4 4 3 3 2
4 3 2 3 4 4 4 2 2 3 3 2 3 3 3 3 3 3 3 2 2 2 2 2 2 2 2 3 3 3 2 2 2 2 2 1 1 2 2 2 1 1 1 1
5 2 1 2 2 2 3 3 4 3 3 3 3 3 2 2 2 2 2 1 2 2 2 2 1 1 2 2 2 2 2 2 2 2 2 2 1 1 1 1 1 2 2 1
3 1 1 1 1 2 2 2 2 3 3 3 2 2 2 2 1 1 1 1 1 2 1 1 1 1 1 2 2 2 3 3 3 2 2 2 2 1 3 1 2 2 2 2
3 3 2 2 2 2 2 2 2 2 2 2 3 2 2 2 1 1 1 1 1 1 1 1 2 2 1 1 2 2 3 3 3 3 3 3 3 3 2 0 1 1 1 3
4 3 2 3 3 3 3 3 3 2 2 2 2 2 1 1 1 1 1 1 1 1 2 2 2 2 2 1 2 3 3 4 3 3 3 3 3 3 2 3 2 1 2 4
3 3 2 3 3 3 2 2 2 2 3 3 3 2 1 1 1 1 1 0 1 1 1 1 1 1 1 2 2 3 3 2 3 3 3 3 2 2 2 3 3 2 2 2
3 3 3 3 2 2 2 2 2 2 2 2 2 2 2 1 1 1 0 1 1 1 0 0 1 1 1 2 2 3 2 2 2 2 3 3 3 3 3 3 2 2 2 3
3 3 3 3 3 2 2 2 1 1 1 1 1 1 1 1 1 1 1 1 1 0 1 0 1 1 2 2 2 3 3 3 3 3 2 2 2 2 2 2 2 2 2 3
3 3 4 4 4 3 2 1 0 0 0 1 1 1 1 1 1 1 2 2 1 0 0 0 1 1 2 1 2 3 2 2 2 2 2 2 2 2 2 2 2 1 1 2
3 4 4 4 3 2 2 2 0 0 0 0 0 0 1 1 1 1 2 2 1 1 1 1 2 2 1 1 2 2 3 2 2 2 1 1 2 2 1 2 2 2 2 2
3 4 4 3 2 1 1 1 1 0 0 0 0 0 1 1 1 1 1 1 1 2 2 1 1 2 1 0 2 3 3 2 2 1 1 1 1 1 1 1 1 1 1 1
2 3 3 2 1 1 1 1 1 1 0 1 1 1 1 2 2 2 2 1 0 2 2 1 1 1 1 1 3 3 2 1 1 0 1 1 1 1 1 1 1 1 1 1
2 3 3 2 1 1 2 2 1 1 1 1 1 1 2 2 2 2 1 1 1 1 1 1 1 1 1 2 2 2 1 1 0 0 0 1 1 0 0 1 1 1 1 0
3 3 2 2 1 1 1 1 1 1 1 1 1 2 2 2 2 2 2 1 1 1 2 1 1 1 1 2 2 2 1 1 0 0 0 1 1 1 1 1 2 1 1 1
3 2 2 2 1 1 1 1 1 0 1 1 1 1 2 1 1 1 1 1 0 1 1 1 2 2 3 2 1 1 1 0 0 0 0 1 1 1 1 1 1 1 1 1
2 2 2 1 1 1 1 1 1 1 1 1 1 0 1 1 1 1 1 0 1 2 1 1 2 3 2 1 1 0 0 0 0 1 1 1 1 1 1 1 1 1 1 1
2 2 1 2 2 2 1 1 1 0 1 1 0 1 1 0 1 1 0 1 1 1 1 1 2 2 1 1 1 0 0 1 1 1 1 1 1 1 1 0 1 1 1 0
2 2 2 2 1 1 1 1 0 0 1 1 1 1 1 1 1 0 0 1 1 1 0 1 1 1 1 1 0 0 0 0 0 0 0 1 1 1 1 1 1 1 1 1
Wind_Direction
261 262 264 259 253 244 241 249 257 248 224 199 198 133 124 131 126 126 140 149 139 132 129 128 128 131 136 147 147 154 160 166 176 176 170 172 172 174 178 189 196 188 200 215
258 257 261 265 262 255 252 251 252 255 257 134 132 109 114 131 135 144 167 168 159 151 143 140 142 143 148 150 145 147 154 161 164 171 172 177 176 174 179 192 192 199 212 221
260 255 253 252 260 261 255 263 260 254 228 188 129 100 123 122 130 161 173 170 166 160 151 149 151 153 159 152 150 154 157 157 162 168 169 174 180 173 177 192 199 206 219 226
259 263 254 251 256 251 251 254 266 263 198 157 111 108 84 91 121 143 173 174 163 162 159 161 159 157 158 158 159 165 163 162 162 170 173 172 177 189 191 192 202 208 207 221
256 255 253 258 266 263 254 247 256 249 250 76 89 77 61 55 71 61 54 149 156 169 168 162 160 157 159 162 165 166 169 173 172 177 185 189 194 201 194 190 204 209 196 199
248 256 254 261 264 270 263 229 349 56 36 13 59 251 68 66 72 53 76 96 130 142 145 149 150 155 162 167 169 179 184 181 180 182 193 199 193 190 193 197 202 204 198 193
240 246 252 268 264 265 253 291 55 81 62 44 64 40 62 54 57 62 97 98 99 103 129 142 148 157 165 164 178 177 166 172 180 184 198 197 194 194 204 206 205 206 206 200
241 243 248 301 253 220 94 71 55 55 50 55 73 85 90 73 62 58 74 84 80 74 81 112 137 152 160 161 162 155 164 175 182 196 220 202 189 202 213 210 214 210 205 204
250 239 64 46 56 72 85 70 40 48 42 62 81 96 90 74 67 63 62 65 78 82 88 96 113 130 151 144 143 153 170 185 192 200 212 190 194 213 223 217 222 218 200 198
254 198 144 85 70 64 88 84 41 46 46 54 81 91 87 80 69 72 69 61 73 95 109 98 95 110 120 130 143 158 172 189 195 204 202 183 212 237 237 229 222 228 211 212
238 192 130 97 56 59 56 41 37 34 37 41 39 57 73 85 75 74 97 71 88 102 108 110 107 132 131 124 139 167 177 200 217 224 202 188 203 275 258 213 215 216 241 232
258 247 267 158 24 12 19 24 17 14 30 28 22 37 53 75 91 105 114 97 99 114 120 147 147 117 112 136 152 188 199 211 227 220 202 204 192 172 30 48 136 162 180 183
343 355 14 5 12 9 357 11 16 24 34 32 17 22 69 77 82 76 94 120 123 137 192 183 159 154 164 185 194 209 218 218 229 224 209 212 207 197 185 129 99 120 188 187
5 360 347 349 359 357 360 7 7 7 17 36 22 15 47 78 81 98 123 174 200 207 199 188 173 179 181 188 215 217 223 217 224 221 224 217 212 218 212 200 192 205 219 207
339 330 327 336 348 346 353 344 332 7 33 31 28 21 32 93 109 111 125 219 226 227 202 189 184 174 180 207 222 224 229 222 216 224 232 225 221 222 222 217 205 191 176 192
323 324 315 312 324 336 342 332 342 24 29 20 18 7 16 39 57 72 107 208 228 251 284 243 216 180 194 228 240 230 219 221 236 238 236 230 222 221 220 220 216 207 196 187
284 282 289 296 296 306 304 308 334 38 10 352 14 10 7 9 12 11 324 300 280 198 200 192 224 211 211 226 239 244 228 206 211 233 238 247 242 233 230 223 222 223 204 181
291 297 299 296 293 283 270 267 284 39 353 359 17 55 33 8 334 332 318 311 281 135 353 350 287 256 221 209 256 267 256 231 219 224 206 213 236 245 241 233 226 222 196 198
322 308 296 293 294 298 304 299 277 22 29 21 320 346 22 1 335 334 342 324 329 356 339 328 302 284 239 175 241 257 253 249 243 233 215 187 220 237 238 230 225 228 222 198
327 324 317 315 313 312 297 286 276 246 259 224 218 24 7 324 313 310 323 316 323 326 328 337 292 287 296 26 286 266 252 245 246 247 219 208 232 249 257 260 252 253 255 235
335 327 316 309 327 329 328 322 315 310 283 241 220 228 255 269 275 275 260 244 322 336 303 267 264 295 308 313 269 263 255 254 256 268 237 229 239 248 268 281 275 268 269 271
326 316 308 294 292 316 324 322 324 314 306 301 274 269 268 275 277 268 257 256 266 269 261 256 264 319 343 286 258 273 286 295 279 241 249 227 217 242 298 304 276 265 259 250
301 298 306 299 284 295 305 306 300 296 288 278 266 256 255 261 262 262 270 286 289 241 244 268 300 155 237 251 273 278 265 267 248 182 219 258 254 224 238 262 261 244 228 232
295 293 295 291 283 249 246 282 332 322 278 254 228 246 246 245 254 259 267 288 50 165 246 201 186 193 208 234 250 257 264 239 264 260 253 249 248 225 224 248 263 251 236 245
293 284 293 298 272 258 230 240 247 252 255 259 295 336 263 242 256 300 311 256 170 196 225 159 186 207 217 226 213 239 44 77 235 272 260 241 245 245 239 230 238 261 264 258
290 285 287 272 269 265 243 234 232 242 277 291 321 312 314 232 202 211 199 167 159 201 217 156 174 201 209 171 121 92 93 155 182 217 228 227 241 259 274 281 259 251 247 264
262 253 249 257 257 274 284 275 332 13 7 21 3 0 14 28 20 353 166 152 160 203 217 180 169 184 186 146 128 105 133 92 306 296 303 339 344 346 12 10 350 1 25 26